Showing default

LEMUR-2 JULIA-JOEL, 68476

Orbit data source: Space-Track

LEMUR-2 JULIA-JOEL, 68476 is a Luxembourger payload satellite in SSO that was launched on Mon, 30 Mar 2026 UTC via an FALCON 9 launch vehicle from the Air Force Western Test Range (AFWTR). Payload-class satellites include a variety of spacecraft equipped with specific instruments for various scientific and technological missions. These include communications satellites like Starlink; space stations such as the ISS; scientific satellites like the Hubble; Earth observation satellites from companies like Planet Labs, Umbra, and HawkEye 360; GPS; miniature CubeSats for education and research; and military/defense satellites.

Loading next visibility...
Identifier
68476, 2026-067BN
Orbit
SSO
Country
Flag of LULU / LUXE
Related business
None
Manufacturer
Unknown
Mission
Operational spacecraft
Bus & Motor
Unknown
Mass
Unknown
Launch date (UTC)
2026-03-30 (1 month ago)
Launch vehicle
FALCON 9
Launch site
Air Force Western Test Range (AFWTR)
Object type
Payload
Rocket body
Debris
Shape & HBR
Unknown shape, 1.1 m
Radar Cross Section
RCS unknown

Expand to show TLE details & history
Last TLE update: 19 hours ago

TLE from 19 hours ago
0 LEMUR-2 JULIA-JOEL
1 68476U 26067BN  26126.84856262  .00003584  00000-0  35503-3 0  9999
2 68476  97.7548  85.7685 0003840  63.4149 296.7463 14.92444235  5565
Epoch: 2026-05-06T20:21Z
TLE epoch observation values (Epoch: 2026-05-06T20:21:55.810Z)
Latitude
-0.00005°
Longitude
-84.4172°
Altitude
592.156 km
Speed
7.565 km/s
True Right ascension
05h 43m 04s
True Declination
0° 00' 00"
Sunlit
Object was in daylight at epoch
Visualization orbit readout
Latitude
Unknown
Longitude
Unknown
Altitude
Unknown
Speed
Unknown
Apparent Right ascension
Unknown
Apparent Declination
Unknown
Sunlit
N/A
Visualization observer readout
Local Sidereal Time
23:12:19
Azimuth
Unknown
Elevation
Unknown
Doppler factor
Unknown
Orbital elements
Apogee altitude
590.009 km
Perigee altitude
584.66 km
Semi-major axis
6,965.472 km
Eccentricity
0.00038
Inclination
97.7548°
RAAN
85.7685°
Arg. of periapsis
63.4149°
True anomaly
296.707°
Mean anomaly
296.7463°
Eccentric anomaly
296.72665°
Mean motion
3.73351 °/min
Orbital period
96.42 mins
BSTAR
0.00035503
Loading maneuver chart data...
Computing Atmospheric mass density...
Loading historical data...
Loading historical data...
Loading historical data...
Loading historical data...
Loading historical data...
Loading historical data...
Loading historical data...

Documentation

Showing up to 5 results
|